Regional Weather Roundup
Issued by NWS

Home | Current Version | Previous Version | Text Only | Print | Product List | Glossary On
Versions: 1 2 3 4 5 6 7 8 9 10 11 12 13 14 15 16 17 18 19 20 21 22 23 24 25 26 27 28 29 30 31 32 33 34 35 36 37 38 39 40 41 42 43 44 45 46 47 48 49 50
000
ASUS43 KMPX 261910
RWRMN
WEATHER ROUNDUP FOR MINNESOTA
NATIONAL WEATHER SERVICE TWIN CITIES/CHANHASSEN MN
200 PM CDT MON JUN 26 2017


NOTE: "FAIR" INDICATES FEW OR NO CLOUDS BELOW 12,000 FEET WITH NO
SIGNIFICANT WEATHER AND/OR OBSTRUCTIONS TO VISIBILITY. N/A MEANS
CURRENT SKY AND/OR WEATHER CONDITIONS ARE NOT AVAILABLE.

MNZ060>063-068>070-262000-
   Twin Cities Metro

CITY           SKY/WX    TMP DP  RH WIND       PRES   REMARKS
TWIN CITIES    MOSUNNY   69  42  37 N9        30.15F
ST PAUL        MOSUNNY   68  45  43 VRB5G17   30.16F
CRYSTAL        PTSUNNY   66  41  40 VRB6      30.15F
BLAINE         MOSUNNY   70  45  40 NW10      30.15F
LAKEVILLE      PTSUNNY   66  45  45 N8        30.16F
EDEN PRAIRIE   PTSUNNY   70  42  36 NW6       30.15F
SOUTH ST PAUL  MOSUNNY   68  42  40 NW7       30.15F
LAKE ELMO      FAIR      66  45  45 N10       30.16F
$$
MNZ001>005-007-008-013>017-022>024-027-028-262000-
   Northwest Minnesota

CITY           SKY/WX    TMP DP  RH WIND       PRES   REMARKS
BEMIDJI        PTSUNNY   66  40  38 NW10      30.15F
HALLOCK        MOSUNNY   72  37  28 NW10G16   30.14F
ROSEAU         MOSUNNY   70  46  43 NW14      30.12F
WARROAD        SUNNY     70  48  46 W14G21    30.11F
THIEF RVR FALL MOSUNNY   68  37  32 W15       30.17F
CROOKSTON      MOSUNNY   70  41  35 NW10      30.17F
FOSSTON        MOSUNNY   66  43  42 W7        30.18S
DETROIT LAKES  SUNNY     68  39  34 NW9       30.20F
MOORHEAD       MOSUNNY   70  36  28 CALM      30.19F
PARK RAPIDS    PTSUNNY   69  39  33 N13       30.17F
MAHNOMEN       MOCLDY    67  40  37 NW10G16   30.18S
$$
MNZ006-009>011-018-025>026-262000-
   North Central Minnesota

CITY           SKY/WX    TMP DP  RH WIND       PRES   REMARKS
BAUDETTE       PTSUNNY   66  43  43 NW14G22   30.10F
FLAG ISLAND    MOSUNNY   66  43  42 N13       30.08F
INTL FALLS     PTSUNNY   68  45  43 NW18G26   30.08F
WASKISH        CLOUDY    66  46  48 W10       30.12F
BIG FORK       MOSUNNY   64  45  48 NW5       30.12F
LONGVILLE      MOSUNNY   66  43  42 NW9G17    30.15F
GRAND RAPIDS   SUNNY     66  44  45 NW12      30.14F
CRANE LAKE     MOSUNNY   64  43  45 NW9       30.09R
ORR            MOSUNNY   61  52  72 SW3       30.07F
COOK           PTSUNNY   55  48  76 CALM      30.10F
WALKER         CLOUDY    65  43  45 N8        30.15F
$$
MNZ012-019>021-037-262000-
   Northeast Minnesota

CITY           SKY/WX    TMP DP  RH WIND       PRES   REMARKS
DULUTH         LGT RAIN  61  45  55 N14G28    30.09F
ELY            MOSUNNY   63  45  51 N6        30.06S
HIBBING        MOSUNNY   65  43  44 NW17G25   30.10F
EVELETH        HVY RAIN  60  39  46 N14G23    30.12R
DULUTH HARBOR  MOSUNNY   66  46  48 CALM      30.08F
TWO HARBORS    MOSUNNY   70  54  56 S3        30.04F
SILVER BAY     PTSUNNY   64  46  52 W3        30.04F
GRAND MARAIS     N/A     49  44  83 W9        30.03S
G MARAIS ARPRT MOSUNNY   63  43  48 NW5       30.04F
$$
MNZ029>031-032-039>041-046>048-054>057-064-262000-
   West Central Minnesota

CITY           SKY/WX    TMP DP  RH WIND       PRES   REMARKS
FERGUS FALLS   MOSUNNY   66  43  42 NW9       30.18F
WHEATON        SUNNY     68  41  37 N9        30.22F
MORRIS         MOSUNNY   70  43  37 N9        30.20F
ALEXANDRIA     SUNNY     66  41  40 VRB5G16   30.21F
ELBOW LAKE     FAIR      65  44  45 NW9       30.21S
WADENA         MOSUNNY   66  45  45 N12       30.18F
GLENWOOD       MOSUNNY   66  43  42 NE6       30.20F
APPLETON       SUNNY     68  39  34 NE5G10    30.20F
BENSON         MOSUNNY   70  43  37 NE5       30.21F
ORTONVILLE     SUNNY     68  37  32 NE9       30.21F
MADISON        SUNNY     70  41  35 NW3       30.21F
WILLMAR        FAIR      70  43  37 NW10      30.21S
$$
MNZ033>034-036-042>043-049>051-058-059-262000-
   Central Minnesota

CITY           SKY/WX    TMP DP  RH WIND       PRES   REMARKS
ST CLOUD       MOSUNNY   70  42  36 N10       30.17F
SAUK CENTRE    MOCLDY    66  41  40 NW12      30.19F
PAYNESVILLE    MOSUNNY   69  39  34 N7        30.19F
AITKIN         MOSUNNY   64  45  48 W9        30.13F
PINE RIVER     MOSUNNY   66  46  48 W6        30.19F
BRAINERD       MOSUNNY   69  41  36 N10       30.16F
STAPLES        MOSUNNY   68  37  32 NW10G17   30.17F
LONG PRAIRIE   FAIR      64  43  45 NW7       30.19F
LITTLE FALLS   MOSUNNY   68  37  32 NW10G16   30.17F
LITCHFIELD     MOSUNNY   68  45  42 NW9G17    30.19F
BUFFALO        MOSUNNY   68  41  38 NW8       30.18F
MAPLE LAKE     MOSUNNY   69  46  43 NW7       30.18F
HUTCHINSON     MOSUNNY   67  45  44 NW13G18   30.19F
$$
MNZ037-044-045-052-053-262000-
   East Central Minnesota

CITY           SKY/WX    TMP DP  RH WIND       PRES   REMARKS
PRINCETON      MOSUNNY   72  41  33 NW10G16   30.15F
MORA           DRIZZLE   61  46  59 NW8       30.17S
CAMBRIDGE      MOSUNNY   72  48  43 NW8G21    30.13F
RUSH CITY      MOSUNNY   68  46  45 NW8       30.14S
MOOSE LAKE     PTSUNNY   64  41  42 N10G18    30.11S
HINCKLEY       CLOUDY    64  46  52 N9        30.13S
CLOQUET        PTSUNNY   66  39  37 NW16      30.11S
MCGREGOR       PTSUNNY   64  43  45 NW6       30.14F
$$
MNZ071>073-080-081-089-090-097-098-262000-
   Southwest Minnesota

CITY           SKY/WX    TMP DP  RH WIND       PRES   REMARKS
MONTEVIDEO     MOSUNNY   70  41  35 CALM      30.21F
GRANITE FALLS  SUNNY     69  42  38 N8        30.22S
CANBY          MOSUNNY   69  39  33 CALM      30.22F
MARSHALL       SUNNY     66  41  40 N12G17    30.21F
REDWOOD FALLS  MOSUNNY   70  40  33 N10       30.19F
OLIVIA         MOSUNNY   70  43  37 NW7       30.19S
PIPESTONE      MOSUNNY   66  37  34 N6G17     30.21F
WINDOM         MOSUNNY   66  37  34 N12       30.20F
WORTHINGTON    MOSUNNY   65  42  43 N15       30.21F
JACKSON        MOSUNNY   64  37  36 N8        30.21S
TRACY          SUNNY     67  42  40 N7G16     30.21F
SLAYTON        MOSUNNY   64  41  42 N8G16     30.23S
$$
MNZ065>067-074>077-082>085-091>093-262000-
   South Central Minnesota

CITY           SKY/WX    TMP DP  RH WIND       PRES   REMARKS
MANKATO        PTSUNNY   66  42  41 NW5       30.19F
NEW ULM        MOSUNNY   66  39  37 NW10      30.19S
ST JAMES       MOSUNNY   68  41  37 NW14      30.20F
FAIRMONT       MOSUNNY   66  39  37 N10G17    30.20F
GLENCOE        PTSUNNY   67  46  47 NW8G16    30.17F
FARIBAULT      MOSUNNY   66  41  39 NW10      30.17F
OWATONNA       MOSUNNY   66  45  45 NW13G18   30.18S
WASECA         MOSUNNY   68  41  37 NW8G16    30.19S
ALBERT LEA     MOSUNNY   66  37  34 N8        30.17F
$$
MNZ078>079-086>088-094>096-262000-
   Southeast Minnesota

CITY           SKY/WX    TMP DP  RH WIND       PRES   REMARKS
ROCHESTER      PTSUNNY   63  44  50 N12       30.18F
RED WING       MOSUNNY   70  39  32 NW10G17   30.14F
STANTON        MOSUNNY   67  44  41 NW9       30.15F
DODGE CENTER   PTSUNNY   64  43  45 N7G16     30.17F
WINONA         PTSUNNY   68  45  42 N8        30.14F
AUSTIN         MOSUNNY   64  45  48 N8G16     30.17S
PRESTON        MOSUNNY   63  44  50 N9G16     30.16F
$$
ABBREVIATIONS USED IN REMARKS
   TC - TEMPERATURES IN CELSIUS
  WCI - WIND CHILL INDEX
   HX - HEAT INDEX
  VSB - VISIBILITY
$$




USA.gov is the U.S. government's official web portal to all federal, state and local government web resources and services.